COSMOS 2251 DEB, 35667

Orbit data source: Space-Track

COSMOS 2251 DEB, 35667 is space debris in LEO originally from a launch on Wed, 16 Jun 1993 UTC launched from the Plesetsk Missile And Space Complex (PKMTR). The debris from Iridium 33, an American commercial communications satellite, has been tracked extensively since its accidental collision with the defunct Russian satellite Cosmos 2251 in 2009. This event, occurring at high speed in low Earth orbit (LEO), generated thousands of pieces of space debris, significantly increasing the risk of further collisions. The Iridium 33 debris cloud has impacted space traffic management and orbital debris mitigation strategies, making it a subject of ongoing study in space situational awareness.

Loading next visibility...
Identifier
35667, 1993-036APJ
Orbit
LEO
Country
Flag of CISCIS
Related business
Manufacturer
Unknown
Mission
Spacecraft
Bus & Motor
Unknown
Mass
Unknown
Launch date (UTC)
1993-06-16 (33 years ago)
Launch vehicle
Unknown
Launch site
Plesetsk Missile And Space Complex (PKMTR)
Object type
Payload
Rocket body
Debris
Shape & HBR
Unknown shape, 0.1 m
Radar Cross Section
Small (<0.1 m²)

Expand to show TLE details & history
Last TLE update: 2 days ago

TLE from 2 days ago
0 COSMOS 2251 DEB
1 35667U 93036APJ 26237.12436599  .00002695  00000-0  54090-3 0  9990
2 35667  74.0548  12.3910 0019755   5.4286 354.7091 14.62081076745331
Epoch: 2026-08-25T02:59Z
TLE epoch observation values (Epoch: 2026-08-25T02:59:05.221Z)
Latitude
-0.00003°
Longitude
-5.77698°
Altitude
675.207 km
Speed
7.527 km/s
True Right ascension
00h 49m 33s
True Declination
0° 00' 00"
Sunlit
Object was in full shadow at epoch
Visualization orbit readout
Latitude
Unknown
Longitude
Unknown
Altitude
Unknown
Speed
Unknown
Apparent Right ascension
Unknown
Apparent Declination
Unknown
Sunlit
N/A
Visualization observer readout
Local Sidereal Time
14:08:31
Azimuth
Unknown
Elevation
Unknown
Doppler factor
Unknown
Orbital elements
Apogee altitude
698.007 km
Perigee altitude
670.105 km
Semi-major axis
7,062.193 km
Eccentricity
0.00198
Inclination
74.0548°
RAAN
12.391°
Arg. of periapsis
5.4286°
True anomaly
354.68817°
Mean anomaly
354.7091°
Eccentric anomaly
354.69864°
Mean motion
3.65707 °/min
Orbital period
98.44 mins
BSTAR
0.0005409
Loading maneuver chart data...
Computing Atmospheric mass density...

Documentation

Showing up to 5 results
|